When you browse on this site, cookies collect data to enhance your experience and personalize the content and advertising you see.
Visit our Privacy Policy to learn more. By continuing to use the site, you agree to this use of cookies and data.
  • In Belgien
  • Länderverzeichnis
  • Für 7 Tage
  • Wassertemperatur
  • Satellitenkarten
  • Wetterkarte
  • Widgets
  • user-avatar
    Anmelden

    Stündliche Wetter Tusla

    Heute, 24 Juli, Mittwoch

    Zeit Temperatur Niederschläge Wind Luftdruck Luftfeuchtigkeit
    00:00 +20°C° 0 mm 1 m/S 724 mmHg 92%
    01:00 +19°C° 0 mm 1 m/S 724 mmHg 92%
    02:00 +17°C° 0 mm 0 m/S 724 mmHg 93%
    03:00 +17°C° 0 mm 0 m/S 723 mmHg 93%
    04:00 +17°C° 0 mm 0 m/S 723 mmHg 94%
    05:00 +20°C° 0 mm 1 m/S 723 mmHg 91%
    06:00 +21°C° 0 mm 1 m/S 724 mmHg 88%
    07:00 +22°C° 0 mm 1 m/S 724 mmHg 85%
    08:00 +24°C° 0 mm 1 m/S 724 mmHg 78%
    09:00 +25°C° 0 mm 2 m/S 724 mmHg 71%
    10:00 +26°C° 0 mm 2 m/S 724 mmHg 64%
    11:00 +27°C° 0 mm 3 m/S 724 mmHg 61%
    12:00 +28°C° 0 mm 3 m/S 724 mmHg 59%
    13:00 +28°C° 0 mm 3 m/S 724 mmHg 57%
    14:00 +28°C° 0 mm 3 m/S 724 mmHg 57%
    15:00 +28°C° 0 mm 2 m/S 724 mmHg 58%
    16:00 +28°C° 0 mm 2 m/S 723 mmHg 58%
    17:00 +26°C° 0 mm 2 m/S 723 mmHg 67%
    18:00 +24°C° 0 mm 1 m/S 723 mmHg 75%
    19:00 +23°C° 0 mm 1 m/S 723 mmHg 83%
    20:00 +22°C° 0 mm 1 m/S 723 mmHg 86%
    21:00 +21°C° 0 mm 1 m/S 724 mmHg 89%
    22:00 +18°C° 0 mm 0 m/S 724 mmHg 92%
    23:00 +19°C° 0 mm 1 m/S 724 mmHg 92%

    Morgen, 25 Juli, Donnerstag

    Zeit Temperatur Niederschläge Wind Luftdruck Luftfeuchtigkeit
    00:00 +19°C° 0 mm 1 m/S 723 mmHg 92%
    01:00 +19°C° 0 mm 1 m/S 723 mmHg 93%
    02:00 +19°C° 0 mm 1 m/S 723 mmHg 93%
    03:00 +18°C° 0 mm 1 m/S 723 mmHg 93%
    04:00 +18°C° 0 mm 1 m/S 723 mmHg 93%
    05:00 +18°C° 0 mm 0 m/S 724 mmHg 87%
    06:00 +20°C° 0 mm 0 m/S 724 mmHg 82%
    07:00 +22°C° 0 mm 0 m/S 724 mmHg 76%
    08:00 +24°C° 0 mm 0 m/S 724 mmHg 69%
    09:00 +26°C° 0 mm 0 m/S 725 mmHg 61%
    10:00 +29°C° 0 mm 1 m/S 725 mmHg 53%
    11:00 +30°C° 0 mm 1 m/S 724 mmHg 51%
    12:00 +30°C° 0 mm 1 m/S 724 mmHg 49%
    13:00 +31°C° 0 mm 2 m/S 724 mmHg 48%
    14:00 +31°C° 0 mm 2 m/S 724 mmHg 48%
    15:00 +30°C° 0 mm 2 m/S 723 mmHg 49%
    16:00 +30°C° 0 mm 2 m/S 723 mmHg 49%
    17:00 +28°C° 0 mm 1 m/S 723 mmHg 58%
    18:00 +26°C° 0 mm 1 m/S 723 mmHg 67%
    19:00 +24°C° 0 mm 1 m/S 722 mmHg 76%
    20:00 +23°C° 0 mm 1 m/S 722 mmHg 78%
    21:00 +22°C° 0 mm 1 m/S 722 mmHg 80%
    22:00 +21°C° 0 mm 1 m/S 722 mmHg 82%
    23:00 +21°C° 0 mm 1 m/S 722 mmHg 83%

    übermorgen, 26 Juli, Freitag

    Zeit Temperatur Niederschläge Wind Luftdruck Luftfeuchtigkeit
    00:00 +20°C° 0 mm 1 m/S 722 mmHg 84%
    01:00 +20°C° 0 mm 1 m/S 722 mmHg 86%
    02:00 +20°C° 0 mm 1 m/S 722 mmHg 87%
    03:00 +19°C° 0 mm 1 m/S 721 mmHg 88%
    04:00 +19°C° 0 mm 1 m/S 721 mmHg 88%
    05:00 +21°C° 0 mm 1 m/S 721 mmHg 83%
    06:00 +23°C° 0 mm 1 m/S 721 mmHg 77%
    07:00 +24°C° 0 mm 1 m/S 721 mmHg 71%
    08:00 +27°C° 0 mm 1 m/S 721 mmHg 63%
    09:00 +29°C° 0 mm 1 m/S 721 mmHg 54%
    10:00 +31°C° 0 mm 1 m/S 721 mmHg 46%
    11:00 +31°C° 0 mm 1 m/S 721 mmHg 43%
    12:00 +32°C° 0 mm 1 m/S 720 mmHg 41%
    13:00 +32°C° 0 mm 1 m/S 720 mmHg 38%
    14:00 +32°C° 0 mm 1 m/S 720 mmHg 40%
    15:00 +32°C° 0 mm 1 m/S 719 mmHg 41%
    16:00 +32°C° 0 mm 1 m/S 719 mmHg 43%
    17:00 +29°C° 0 mm 1 m/S 718 mmHg 52%
    18:00 +27°C° 0 mm 1 m/S 718 mmHg 61%
    19:00 +25°C° 0 mm 1 m/S 717 mmHg 70%
    20:00 +24°C° 1.5 mm 1 m/S 717 mmHg 77%
    21:00 +22°C° 1.5 mm 1 m/S 717 mmHg 83%
    22:00 +21°C° 1.5 mm 1 m/S 717 mmHg 90%
    23:00 +21°C° 1.5 mm 1 m/S 717 mmHg 91%

    27 Juli, Samstag

    Zeit Temperatur Niederschläge Wind Luftdruck Luftfeuchtigkeit
    00:00 +21°C° 1.5 mm 1 m/S 717 mmHg 92%
    01:00 +21°C° 1.5 mm 1 m/S 717 mmHg 94%
    02:00 +20°C° 0.4 mm 1 m/S 717 mmHg 94%
    03:00 +20°C° 0.4 mm 1 m/S 716 mmHg 94%
    04:00 +20°C° 0.4 mm 1 m/S 716 mmHg 95%
    05:00 +21°C° 0.1 mm 1 m/S 716 mmHg 93%
    06:00 +22°C° 0.1 mm 1 m/S 716 mmHg 91%
    07:00 +23°C° 0.1 mm 1 m/S 716 mmHg 89%
    08:00 +25°C° 0.5 mm 1 m/S 717 mmHg 80%
    09:00 +27°C° 0.5 mm 1 m/S 717 mmHg 71%
    10:00 +29°C° 0.5 mm 1 m/S 717 mmHg 62%
    11:00 +29°C° 1.2 mm 1 m/S 717 mmHg 63%
    12:00 +29°C° 1.2 mm 2 m/S 716 mmHg 64%
    13:00 +29°C° 1.2 mm 2 m/S 716 mmHg 65%
    14:00 +29°C° 0.8 mm 2 m/S 716 mmHg 70%
    15:00 +28°C° 0.8 mm 2 m/S 715 mmHg 74%
    16:00 +27°C° 0.8 mm 1 m/S 715 mmHg 79%
    17:00 +26°C° 1.2 mm 1 m/S 715 mmHg 82%
    18:00 +25°C° 1.2 mm 1 m/S 715 mmHg 85%
    19:00 +21°C° 1.2 mm 0 m/S 714 mmHg 88%
    20:00 +23°C° 0.4 mm 1 m/S 715 mmHg 90%
    21:00 +22°C° 0.4 mm 1 m/S 715 mmHg 91%
    22:00 +21°C° 0.4 mm 1 m/S 715 mmHg 92%
    23:00 +21°C° 0.2 mm 1 m/S 714 mmHg 92%

    28 Juli, Sonntag

    Zeit Temperatur Niederschläge Wind Luftdruck Luftfeuchtigkeit
    00:00 +20°C° 0.2 mm 1 m/S 714 mmHg 93%
    01:00 +20°C° 0.2 mm 1 m/S 714 mmHg 94%
    02:00 +20°C° 0.7 mm 1 m/S 714 mmHg 94%
    03:00 +19°C° 0.7 mm 1 m/S 714 mmHg 94%
    04:00 +19°C° 0.7 mm 1 m/S 713 mmHg 94%
    05:00 +20°C° 0.1 mm 1 m/S 713 mmHg 92%
    06:00 +21°C° 0.1 mm 1 m/S 714 mmHg 91%
    07:00 +20°C° 0.1 mm 0 m/S 714 mmHg 89%
    08:00 +24°C° 0.8 mm 1 m/S 714 mmHg 86%
    09:00 +25°C° 0.8 mm 1 m/S 714 mmHg 83%
    10:00 +26°C° 0.8 mm 1 m/S 714 mmHg 79%
    11:00 +26°C° 1.6 mm 1 m/S 714 mmHg 81%
    12:00 +26°C° 1.6 mm 1 m/S 714 mmHg 82%
    13:00 +26°C° 1.6 mm 2 m/S 714 mmHg 83%
    14:00 +26°C° 0.5 mm 1 m/S 714 mmHg 80%
    15:00 +26°C° 0.5 mm 1 m/S 714 mmHg 77%
    16:00 +27°C° 0.5 mm 1 m/S 714 mmHg 74%
    17:00 +25°C° 1.3 mm 1 m/S 713 mmHg 79%
    18:00 +24°C° 1.3 mm 1 m/S 713 mmHg 84%
    19:00 +22°C° 1.3 mm 1 m/S 713 mmHg 89%
    20:00 +22°C° 0.4 mm 1 m/S 714 mmHg 91%
    21:00 +19°C° 0.4 mm 0 m/S 714 mmHg 92%
    22:00 +19°C° 0.4 mm 0 m/S 714 mmHg 94%
    23:00 +19°C° 0.3 mm 0 m/S 714 mmHg 94%

    29 Juli, Montag

    Zeit Temperatur Niederschläge Wind Luftdruck Luftfeuchtigkeit
    00:00 +18°C° 0.3 mm 0 m/S 714 mmHg 93%
    01:00 +18°C° 0.3 mm 0 m/S 714 mmHg 93%
    02:00 +18°C° 0.3 mm 0 m/S 714 mmHg 94%
    03:00 +18°C° 0.3 mm 0 m/S 714 mmHg 94%
    04:00 +18°C° 0.3 mm 0 m/S 714 mmHg 95%
    05:00 +18°C° 0.5 mm 0 m/S 714 mmHg 95%
    06:00 +20°C° 0.5 mm 1 m/S 714 mmHg 95%
    07:00 +20°C° 0.5 mm 1 m/S 715 mmHg 94%
    08:00 +21°C° 0.6 mm 1 m/S 715 mmHg 91%
    09:00 +22°C° 0.6 mm 1 m/S 715 mmHg 88%
    10:00 +23°C° 0.6 mm 2 m/S 716 mmHg 84%
    11:00 +23°C° 1 mm 2 m/S 716 mmHg 85%
    12:00 +24°C° 1 mm 2 m/S 716 mmHg 86%
    13:00 +24°C° 1 mm 2 m/S 716 mmHg 86%
    14:00 +24°C° 1.2 mm 2 m/S 716 mmHg 87%
    15:00 +23°C° 1.2 mm 2 m/S 716 mmHg 89%
    16:00 +23°C° 1.2 mm 2 m/S 716 mmHg 90%
    17:00 +22°C° 1 mm 1 m/S 716 mmHg 91%
    18:00 +21°C° 1 mm 1 m/S 716 mmHg 92%
    19:00 +20°C° 1 mm 1 m/S 716 mmHg 93%
    20:00 +20°C° 0.6 mm 1 m/S 716 mmHg 94%
    21:00 +19°C° 0.6 mm 1 m/S 716 mmHg 94%
    22:00 +19°C° 0.6 mm 1 m/S 716 mmHg 94%
    23:00 +19°C° 0.2 mm 1 m/S 717 mmHg 94%
    Mehr zeigen